Flag for Norway Weather past 2 weeks in Orkanger/Fannrem, Norway

Now
53 °F

Cool.


Feels Like: 53 °F
Forecast: 52 / 65 °F
Wind: 1 mph from Southeast

Location: Vinjeora Ii

Current Time: Aug 28, 2015 at 7:53:27 AM

Latest Report: Aug 28, 2015 at 7:00 AM


Visibility: N/A

Pressure: 29.50 "Hg

Humidity: 93%

Dew point: 51 °F

Location of Orkanger/FannremLocation

Historic Weather in Orkanger/Fannrem — Graph

°F

Orkanger/Fannrem temperature yesterday

Maximum temperature yesterday: 68 °F (at 2:00 AM)
Minimum temperature yesterday: 56 °F (at 10:00 PM)
Average temperature yesterday: 63 °F

Past Weeks' High & Low Weather Summary

 TemperatureHumidityPressure
High81 °F (Aug 19, 3:00 PM)93% (Aug 21, 4:00 AM)30.29 "Hg (Aug 21, 4:00 AM)
Low44 °F (Aug 13, 5:00 AM)17% (Aug 18, 4:00 PM)29.44 "Hg (Aug 27, 6:00 AM)
Average67 °F50%30.00 "Hg
* Reported Aug 13 5:00 AM — Aug 28 5:00 AM, Orkanger/Fannrem, Weather by CustomWeather, © 2015

Note: Actual official high and low records may vary slightly from our data, if they occured in-between our weather recording intervals... More about our weather records

Advertising

Orkanger/Fannrem weather history for previous 24 hours

 ConditionsComfort  
Time TempWeatherWind HumidityBarometerVisibility
5:00 AM
Fri, Aug 28
53 °FCool.No wind93%29.50 "HgN/A
4:00 AM54 °FCool.1 mph92%29.50 "HgN/A
3:00 AM54 °FCool.1 mph92%29.50 "HgN/A
2:00 AM54 °FCool.1 mph91%29.47 "HgN/A
1:00 AM54 °FCool.1 mph91%29.47 "HgN/A
10:00 PM
Thu, Aug 27
56 °FCool.No wind90%29.44 "HgN/A
9:00 PM56 °FCool.1 mph89%29.44 "HgN/A
8:00 PM57 °FCool.1 mph88%29.44 "HgN/A
7:00 PM57 °FCool.2 mph86%29.44 "HgN/A
6:00 PM61 °FCool.2 mph76%29.44 "HgN/A
5:00 PM63 °FMild.2 mph66%29.44 "HgN/A
4:00 PM65 °FMild.1 mph72%29.44 "HgN/A
3:00 PM64 °FMild.1 mph72%29.44 "HgN/A
2:00 PM65 °FMild.1 mph66%29.44 "HgN/A
1:00 PM62 °FCool.2 mph71%29.47 "HgN/A
12:00 PM66 °FMild.5 mph60%29.44 "HgN/A
11:00 AM65 °FMild.5 mph59%29.44 "HgN/A
10:00 AM67 °FMild.1 mph63%29.44 "HgN/A
9:00 AM64 °FMild.2 mph63%29.44 "HgN/A
8:00 AM63 °FMild.2 mph65%29.44 "HgN/A
7:00 AM65 °FMild.2 mph60%29.44 "HgN/A
Weather by CustomWeather, © 2015

See weather overviewHow to use our weather pages